IRIDIUM 133

Last updated on Tue Sep 22 2026 00:03:21 GMT+0000 (Coordinated Universal Time)

1 42955U 17061A 26264.52142072 .00000011 00000+0 -32858-5 0 9996 2 42955 86.4022 345.0176 0002181 94.5490 265.5955 14.34217621468587
UTC large
Height (km)
Speed (km/s)
/
Latitude / Longitude
Inclination (degrees)
Orbital Period (minutes)
Azimuth
Elevation
Range (km)
Doppler Factor

Next 0 passes for location: London (51.5072 / 0.1276)

No passes found over London.
IRIDIUM 133